PTCMS SBPS-SBTE

Flight info

Callsign PTCMS
Flight time N/A
Altitude FL350
Route ZUMBA PAPAL MUGUR KOTRO ORUSU RONCA
Aircraft A320/M-SDE3FGHIRWY/LB1

Departure

Time 2026-05-04 23:40
Airport Porto Seguro International Airport (SBPS)

Arrival

Time N/A
Airport Senador Petrônio Portela Airport (SBTE)
Time Latitude Longitude Altitude Speed Heading
2026-05-04 23:22 -16.44059 -39.08095 160 ft 0 kts 165°
2026-05-04 23:31 -16.44055 -39.08097 160 ft 2 kts 164°
2026-05-04 23:31 -16.44042 -39.08101 160 ft 2 kts 163°
2026-05-04 23:31 -16.44029 -39.08100 160 ft 2 kts 239°
2026-05-04 23:32 -16.44024 -39.08087 160 ft 2 kts 252°
2026-05-04 23:32 -16.44020 -39.08074 160 ft 2 kts 252°
2026-05-04 23:32 -16.44016 -39.08061 160 ft 2 kts 252°
2026-05-04 23:32 -16.44014 -39.08056 160 ft 0 kts 252°
2026-05-04 23:34 -16.44015 -39.08061 160 ft 3 kts 257°
2026-05-04 23:35 -16.44005 -39.08105 160 ft 7 kts 308°
2026-05-04 23:35 -16.43958 -39.08125 160 ft 11 kts 344°
2026-05-04 23:35 -16.43874 -39.08134 160 ft 12 kts 26°
2026-05-04 23:35 -16.43841 -39.08043 159 ft 21 kts 76°
2026-05-04 23:36 -16.43790 -39.07860 161 ft 29 kts 75°
2026-05-04 23:36 -16.43735 -39.07654 162 ft 30 kts 72°
2026-05-04 23:36 -16.43689 -39.07473 163 ft 22 kts 72°
2026-05-04 23:36 -16.43649 -39.07335 162 ft 14 kts 78°
2026-05-04 23:37 -16.43641 -39.07250 161 ft 10 kts 110°
2026-05-04 23:37 -16.43627 -39.07202 160 ft 7 kts 341°
2026-05-04 23:37 -16.43619 -39.07237 161 ft 4 kts 250°
2026-05-04 23:37 -16.43623 -39.07249 161 ft 0 kts 251°
2026-05-04 23:39 -16.43676 -39.07442 163 ft 67 kts 253°
2026-05-04 23:39 -16.43882 -39.08208 161 ft 149 kts 254°
2026-05-04 23:40 -16.44193 -39.09383 531 ft 182 kts 255°
2026-05-04 23:40 -16.44507 -39.10747 1161 ft 202 kts 259°
2026-05-04 23:40 -16.44635 -39.12200 1894 ft 202 kts 274°
2026-05-04 23:40 -16.44153 -39.13565 2588 ft 208 kts 309°
2026-05-04 23:41 -16.42905 -39.14415 3164 ft 227 kts 340°
2026-05-04 23:41 -16.41268 -39.14736 3710 ft 251 kts 349°
2026-05-04 23:41 -16.39490 -39.15093 4332 ft 270 kts 345°
2026-05-04 23:41 -16.37627 -39.15618 4996 ft 286 kts 341°
2026-05-04 23:42 -16.35748 -39.16380 5668 ft 296 kts 332°
2026-05-04 23:42 -16.33876 -39.17330 6542 ft 297 kts 334°
2026-05-04 23:42 -16.32041 -39.18146 7967 ft 281 kts 335°
2026-05-04 23:42 -16.30240 -39.18888 9026 ft 279 kts 336°
2026-05-04 23:43 -16.28417 -39.19613 9866 ft 283 kts 336°
2026-05-04 23:43 -16.26541 -39.20353 10453 ft 297 kts 336°
2026-05-04 23:43 -16.24556 -39.21139 10913 ft 314 kts 336°
2026-05-04 23:43 -16.22471 -39.21966 11456 ft 326 kts 336°
2026-05-04 23:44 -16.20340 -39.22815 12192 ft 331 kts 336°
2026-05-04 23:44 -16.18187 -39.23678 12963 ft 334 kts 336°
2026-05-04 23:44 -16.16013 -39.24547 13688 ft 337 kts 336°
2026-05-04 23:44 -16.13816 -39.25424 14390 ft 341 kts 336°
2026-05-04 23:45 -16.11592 -39.26311 15071 ft 344 kts 336°
2026-05-04 23:45 -16.09349 -39.27208 15736 ft 348 kts 336°
2026-05-04 23:45 -16.07084 -39.28115 16391 ft 351 kts 336°
2026-05-04 23:45 -16.04798 -39.29029 17025 ft 354 kts 336°
2026-05-04 23:46 -16.02488 -39.29955 17638 ft 358 kts 336°
2026-05-04 23:46 -16.00160 -39.30888 18252 ft 361 kts 336°
2026-05-04 23:46 -15.97810 -39.31829 18842 ft 364 kts 336°
2026-05-04 23:46 -15.95439 -39.32777 19412 ft 367 kts 336°
2026-05-04 23:47 -15.93050 -39.33735 19981 ft 370 kts 336°
2026-05-04 23:47 -15.90642 -39.34697 20539 ft 374 kts 336°
2026-05-04 23:47 -15.88210 -39.35668 21093 ft 377 kts 336°
2026-05-04 23:47 -15.85757 -39.36645 21637 ft 380 kts 336°
2026-05-04 23:48 -15.83291 -39.37628 22168 ft 383 kts 336°
2026-05-04 23:48 -15.80802 -39.38624 22692 ft 386 kts 335°
2026-05-04 23:48 -15.78287 -39.39627 23193 ft 389 kts 336°
2026-05-04 23:48 -15.75764 -39.40632 23670 ft 392 kts 335°
2026-05-04 23:49 -15.73210 -39.41648 24139 ft 394 kts 335°
2026-05-04 23:49 -15.70644 -39.42669 24598 ft 397 kts 335°
2026-05-04 23:49 -15.68066 -39.43696 25037 ft 400 kts 335°
2026-05-04 23:49 -15.65470 -39.44733 25465 ft 402 kts 335°
2026-05-04 23:50 -15.62852 -39.45780 25875 ft 405 kts 335°
2026-05-04 23:50 -15.60222 -39.46832 26272 ft 407 kts 335°
2026-05-04 23:50 -15.57579 -39.47887 26656 ft 409 kts 335°
2026-05-04 23:50 -15.54919 -39.48946 27025 ft 412 kts 335°
2026-05-04 23:51 -15.52240 -39.50009 27391 ft 414 kts 335°
2026-05-04 23:51 -15.49545 -39.51079 27761 ft 417 kts 335°
2026-05-04 23:51 -15.46838 -39.52154 28120 ft 419 kts 335°
2026-05-04 23:51 -15.44117 -39.53233 28452 ft 421 kts 335°
2026-05-04 23:52 -15.41382 -39.54319 28763 ft 423 kts 335°
2026-05-04 23:52 -15.38636 -39.55407 29076 ft 425 kts 335°
2026-05-04 23:52 -15.35872 -39.56507 29378 ft 427 kts 335°
2026-05-04 23:52 -15.33102 -39.57610 29697 ft 429 kts 335°
2026-05-04 23:53 -15.30320 -39.58717 29996 ft 431 kts 335°
2026-05-04 23:53 -15.27523 -39.59828 30289 ft 433 kts 335°
2026-05-04 23:53 -15.24707 -39.60951 30573 ft 435 kts 335°
2026-05-04 23:53 -15.21887 -39.62076 30847 ft 436 kts 335°
2026-05-04 23:54 -15.19052 -39.63205 31111 ft 438 kts 335°
2026-05-04 23:54 -15.16206 -39.64330 31369 ft 439 kts 335°
2026-05-04 23:54 -15.13357 -39.65452 31703 ft 439 kts 335°
2026-05-04 23:54 -15.10518 -39.66570 32057 ft 437 kts 335°
2026-05-04 23:55 -15.07682 -39.67690 32396 ft 436 kts 335°
2026-05-04 23:55 -15.04850 -39.68812 32719 ft 436 kts 335°
2026-05-04 23:55 -14.99214 -39.71044 33367 ft 434 kts 335°
2026-05-04 23:56 -14.96402 -39.72160 33689 ft 434 kts 335°
2026-05-04 23:56 -14.93599 -39.73291 34006 ft 433 kts 334°
2026-05-04 23:56 -14.90803 -39.74431 34318 ft 432 kts 334°
2026-05-04 23:56 -14.88023 -39.75570 34607 ft 431 kts 334°
2026-05-04 23:57 -14.85237 -39.76712 34791 ft 431 kts 334°
2026-05-04 23:57 -14.79758 -39.78945 34837 ft 421 kts 334°
2026-05-04 23:58 -14.74322 -39.81153 34837 ft 421 kts 334°
2026-05-04 23:58 -14.68887 -39.83358 34838 ft 421 kts 334°
2026-05-04 23:59 -14.63441 -39.85559 34838 ft 421 kts 334°
2026-05-04 23:59 -14.58010 -39.87767 34842 ft 421 kts 334°
2026-05-05 00:00 -14.52576 -39.89971 34848 ft 421 kts 334°
2026-05-05 00:00 -14.47133 -39.92174 34852 ft 421 kts 334°
2026-05-05 00:00 -14.44671 -39.93173 34905 ft 433 kts 334°
2026-05-05 00:01 -14.41834 -39.94330 35699 ft 440 kts 335°
2026-05-05 00:01 -14.39032 -39.95456 37363 ft 424 kts 335°
2026-05-05 00:01 -14.36342 -39.96520 39085 ft 409 kts 335°
2026-05-05 00:01 -14.33683 -39.97567 40104 ft 414 kts 335°
2026-05-05 00:02 -14.30930 -39.98656 40181 ft 438 kts 335°
2026-05-05 00:02 -14.27994 -39.99826 39727 ft 470 kts 335°
2026-05-05 00:02 -14.24870 -40.01082 39582 ft 492 kts 335°
2026-05-05 00:02 -14.21684 -40.02362 40345 ft 490 kts 335°
2026-05-05 00:03 -14.18564 -40.03596 41777 ft 472 kts 335°
2026-05-05 00:03 -14.15545 -40.04770 43089 ft 459 kts 336°
2026-05-05 00:03 -14.12554 -40.05918 43635 ft 464 kts 336°
2026-05-05 00:03 -14.09469 -40.07098 43342 ft 486 kts 336°
2026-05-05 00:04 -14.06211 -40.08351 42596 ft 516 kts 336°
2026-05-05 00:04 -14.02744 -40.09689 40619 ft 547 kts 336°
2026-05-05 00:04 -13.98981 -40.11148 35097 ft 620 kts 336°
2026-05-05 00:04 -13.94604 -40.12847 27968 ft 729 kts 337°
2026-05-05 00:05 -13.92777 -40.13552 25555 ft 0 kts 338°
2026-05-05 00:11 0.00041 0.01397 9 ft 0 kts 360°